TimeCDT,TemperatureF,Dew PointF,Humidity,Sea Level PressureIn,VisibilityMPH,Wind Direction,Wind SpeedMPH,Gust SpeedMPH,PrecipitationIn,Events,Conditions,WindDirDegrees,DateUTC
12:18 AM,65.3,42.8,44,29.72,10.0,South,19.6,26.5,N/A,,Clear,190,2013-09-30 05:18:00
12:38 AM,65.5,42.8,44,29.72,10.0,SSW,19.6,26.5,N/A,,Clear,200,2013-09-30 05:38:00
12:57 AM,65.5,42.6,43,29.71,10.0,SSW,16.1,26.5,N/A,,Clear,200,2013-09-30 05:57:00
1:17 AM,65.7,42.4,43,29.71,10.0,SSW,19.6,28.8,N/A,,Clear,200,2013-09-30 06:17:00
1:38 AM,65.5,42.4,43,29.70,10.0,SSW,18.4,33.4,N/A,,Clear,200,2013-09-30 06:38:00
1:58 AM,65.7,42.6,43,29.70,10.0,SSW,21.9,35.7,N/A,,Clear,200,2013-09-30 06:58:00
2:18 AM,65.5,42.8,44,29.70,10.0,SSW,21.9,32.2,N/A,,Clear,200,2013-09-30 07:18:00
2:37 AM,65.3,42.8,44,29.69,10.0,SSW,20.7,27.6,N/A,,Clear,200,2013-09-30 07:37:00
2:58 AM,65.5,42.3,43,29.69,10.0,SSW,23.0,31.1,N/A,,Clear,200,2013-09-30 07:58:00
3:18 AM,65.3,42.3,43,29.68,10.0,SSW,23.0,35.7,N/A,,Clear,210,2013-09-30 08:18:00
3:38 AM,64.6,42.8,45,29.67,10.0,SSW,26.5,35.7,N/A,,Clear,210,2013-09-30 08:38:00
3:57 AM,64.0,43.0,46,29.66,10.0,SSW,23.0,33.4,N/A,,Clear,210,2013-09-30 08:57:00
4:18 AM,63.3,43.3,48,29.66,10.0,SSW,23.0,33.4,N/A,,Clear,210,2013-09-30 09:18:00
4:38 AM,62.8,43.5,49,29.65,10.0,SSW,20.7,29.9,N/A,,Clear,210,2013-09-30 09:38:00
4:57 AM,62.6,43.7,50,29.65,10.0,SSW,23.0,35.7,N/A,,Clear,210,2013-09-30 09:57:00
5:18 AM,62.1,43.9,51,29.65,10.0,SSW,19.6,27.6,N/A,,Clear,210,2013-09-30 10:18:00
5:38 AM,61.9,43.9,52,29.65,10.0,SSW,18.4,28.8,N/A,,Clear,210,2013-09-30 10:38:00
5:58 AM,61.5,43.9,52,29.65,10.0,SW,20.7,27.6,N/A,,Clear,220,2013-09-30 10:58:00
6:18 AM,61.2,44.1,53,29.65,10.0,SSW,19.6,26.5,N/A,,Clear,210,2013-09-30 11:18:00
6:38 AM,60.8,44.6,55,29.65,10.0,SSW,20.7,26.5,N/A,,Clear,210,2013-09-30 11:38:00
6:58 AM,60.3,44.8,57,29.64,10.0,SSW,18.4,21.9,N/A,,Clear,210,2013-09-30 11:58:00
7:17 AM,60.3,45.0,57,29.64,10.0,SSW,19.6,25.3,N/A,,Clear,210,2013-09-30 12:17:00
7:38 AM,59.9,45.3,59,29.64,10.0,SSW,18.4,25.3,N/A,,Clear,210,2013-09-30 12:38:00
7:58 AM,59.9,45.5,59,29.64,10.0,SSW,17.3,23.0,N/A,,Clear,210,2013-09-30 12:58:00
8:17 AM,60.1,45.7,59,29.64,10.0,SSW,18.4,23.0,N/A,,Clear,200,2013-09-30 13:17:00
8:38 AM,60.6,45.9,58,29.64,10.0,SSW,18.4,26.5,N/A,,Clear,210,2013-09-30 13:38:00
8:57 AM,61.7,46.4,57,29.64,10.0,SSW,18.4,25.3,N/A,,Clear,210,2013-09-30 13:57:00
9:18 AM,61.9,46.4,57,29.64,10.0,SSW,17.3,24.2,N/A,,Clear,210,2013-09-30 14:18:00
9:37 AM,62.6,46.4,55,29.63,10.0,SSW,18.4,25.3,N/A,,Clear,210,2013-09-30 14:37:00
9:58 AM,63.7,46.6,54,29.64,10.0,SSW,19.6,24.2,N/A,,Clear,210,2013-09-30 14:58:00
10:18 AM,65.1,46.8,51,29.63,10.0,SSW,19.6,-,N/A,,Clear,210,2013-09-30 15:18:00
10:38 AM,67.1,46.8,48,29.63,10.0,SSW,20.7,27.6,N/A,,Clear,210,2013-09-30 15:38:00
10:57 AM,68.4,46.8,46,29.63,10.0,SSW,17.3,23.0,N/A,,Clear,210,2013-09-30 15:57:00
11:17 AM,69.6,47.1,45,29.64,10.0,SSW,17.3,23.0,N/A,,Clear,210,2013-09-30 16:17:00
11:38 AM,71.8,46.8,41,29.65,10.0,SW,19.6,23.0,N/A,,Clear,220,2013-09-30 16:38:00
11:58 AM,72.7,46.6,39,29.65,10.0,SW,13.8,20.7,N/A,,Clear,230,2013-09-30 16:58:00
12:18 PM,73.6,46.9,39,29.64,10.0,SW,15.0,19.6,N/A,,Clear,220,2013-09-30 17:18:00
12:38 PM,74.1,47.5,39,29.63,10.0,SSW,13.8,20.7,N/A,,Clear,200,2013-09-30 17:38:00
12:57 PM,74.5,47.7,39,29.63,10.0,SSW,13.8,21.9,N/A,,Clear,210,2013-09-30 17:57:00
1:17 PM,76.3,47.7,36,29.62,10.0,SSW,13.8,20.7,N/A,,Clear,200,2013-09-30 18:17:00
1:37 PM,77.0,47.3,35,29.61,10.0,South,10.4,-,N/A,,Clear,190,2013-09-30 18:37:00
1:58 PM,77.7,46.8,33,29.61,10.0,SSW,15.0,-,N/A,,Clear,210,2013-09-30 18:58:00
2:17 PM,78.6,46.8,32,29.61,10.0,SSW,13.8,19.6,N/A,,Clear,210,2013-09-30 19:17:00
2:37 PM,79.0,46.8,32,29.60,10.0,South,12.7,17.3,N/A,,Clear,190,2013-09-30 19:37:00
2:58 PM,80.2,46.8,31,29.60,10.0,SW,15.0,18.4,N/A,,Clear,220,2013-09-30 19:58:00
3:18 PM,80.6,46.2,30,29.60,10.0,SSW,12.7,19.6,N/A,,Clear,200,2013-09-30 20:18:00
3:37 PM,81.0,46.0,29,29.60,10.0,SW,11.5,19.6,N/A,,Clear,220,2013-09-30 20:37:00
3:58 PM,81.3,45.9,29,29.59,10.0,SSW,13.8,21.9,N/A,,Clear,200,2013-09-30 20:58:00
4:18 PM,81.7,45.7,28,29.59,10.0,SSW,13.8,23.0,N/A,,Clear,210,2013-09-30 21:18:00
4:37 PM,81.9,45.5,28,29.59,10.0,SSW,16.1,19.6,N/A,,Clear,210,2013-09-30 21:37:00
4:58 PM,81.5,46.2,29,29.59,10.0,SSW,12.7,23.0,N/A,,Clear,210,2013-09-30 21:58:00
5:18 PM,81.3,46.4,29,29.59,10.0,SSW,13.8,17.3,N/A,,Clear,210,2013-09-30 22:18:00
5:38 PM,80.6,46.6,30,29.59,10.0,SW,12.7,20.7,N/A,,Clear,220,2013-09-30 22:38:00
5:58 PM,80.1,47.5,32,29.59,10.0,SSW,12.7,17.3,N/A,,Clear,210,2013-09-30 22:58:00
6:18 PM,79.0,47.8,33,29.59,10.0,SSW,10.4,-,N/A,,Clear,210,2013-09-30 23:18:00
6:37 PM,77.9,48.6,36,29.59,10.0,Calm,Calm,-,N/A,,Clear,0,2013-09-30 23:37:00
6:58 PM,76.5,48.7,38,29.59,10.0,Calm,Calm,-,N/A,,Clear,0,2013-09-30 23:58:00
7:18 PM,74.7,49.1,40,29.60,10.0,Calm,Calm,-,N/A,,Clear,0,2013-10-01 00:18:00
7:38 PM,73.4,48.9,42,29.60,10.0,Calm,Calm,-,N/A,,Clear,0,2013-10-01 00:38:00
7:57 PM,73.2,48.2,41,29.60,10.0,Calm,Calm,-,N/A,,Clear,0,2013-10-01 00:57:00
8:18 PM,72.1,48.2,43,29.60,10.0,Calm,Calm,-,N/A,,Clear,0,2013-10-01 01:18:00
8:38 PM,71.6,48.0,43,29.60,10.0,Calm,Calm,-,N/A,,Clear,0,2013-10-01 01:38:00
8:58 PM,70.7,47.8,44,29.61,10.0,Calm,Calm,-,N/A,,Clear,0,2013-10-01 01:58:00
9:17 PM,69.3,48.2,47,29.60,10.0,South,9.2,17.3,N/A,,Clear,190,2013-10-01 02:17:00
9:38 PM,68.5,48.4,49,29.61,10.0,SSW,13.8,17.3,N/A,,Clear,200,2013-10-01 02:38:00
9:58 PM,68.9,48.9,49,29.60,10.0,SSW,15.0,20.7,N/A,,Clear,200,2013-10-01 02:58:00
10:17 PM,70.5,49.3,47,29.60,10.0,SSW,16.1,21.9,N/A,,Clear,200,2013-10-01 03:17:00
10:38 PM,71.6,49.5,45,29.60,10.0,SSW,15.0,21.9,N/A,,Clear,200,2013-10-01 03:38:00
10:58 PM,70.9,49.6,47,29.60,10.0,SSW,15.0,24.2,N/A,,Clear,200,2013-10-01 03:58:00
11:17 PM,70.7,50.0,48,29.59,10.0,SSW,17.3,24.2,N/A,,Clear,200,2013-10-01 04:17:00
11:38 PM,70.9,49.8,47,29.59,10.0,SSW,18.4,24.2,N/A,,Clear,200,2013-10-01 04:38:00
11:57 PM,71.1,50.0,47,29.58,10.0,SSW,17.3,26.5,N/A,,Clear,200,2013-10-01 04:57:00